Yaogan 33-01

operational
NORAD ID: 47302 Int'l Des: 2020-103 Owner: ZLZB Country: CN Constellation: yaogan
LEOCIRCULARRETROGRADESSO

About Yaogan 33-01

Description loading...

Live Position

Loading 3D Globe...

Upcoming Passes

Altitude History

Altitude vs Time

uPlot chart will show altitude changes over time

Two-Line Element Set

1 47302U 20103A 26061.23109730 .00000552 00000-0 12764-3 0 9997
2 47302 98.0572 306.1271 0004175 102.1661 258.0007 14.58824103275713
Epoch: Mar 2, 2026 • Age: 32 hours

Current Status

Altitude 707.5 km
Velocity 7.51 km/s
Sub-Earth Point 81.07°N, 94.99°W
Launch Date Dec 27, 2020
Age 5.1 years
Type military

Technical Details

Classification Payload
Mass 1040.00 kg
Dry Mass 1040.00 kg
Total Mass 1040.00 kg
Length 1.50 m
Diameter 1.50 m
Span 5.00 m
Shape Box + 2 Pan
Manufacturer SAST
Bus Type JB-9
Phase Status In Orbit
Owner/State ZLZB/CN

Large Constellations

Loading constellations...